[Date Prev][Date Next][Thread Prev][Thread Next] - [Date Index][Thread Index][Author Index]

2 Line ISS Keps 10-5



ISS
1 25544U 98067A   05277.81549292  .00015835  00000-0  11449-3 0  4855
2 25544 051.6434 059.3904 0001723 086.7000 001.8721 15.73680985392936
----
Via the sarex mailing list at AMSAT.ORG courtesy of AMSAT-NA.
To unsubscribe, send "unsubscribe sarex" to Majordomo@amsat.org



AMSAT Top AMSAT Home